BRX82L ESGG-ESMS

Flight info

Callsign BRX82L
Flight time 0h 37m
Altitude 19000
Route TOPLA L996 ERNOV
Aircraft AT76/M-SDFGIRY/S

Departure

Time 2026-04-21 17:23
Airport Göteborg Landvetter Airport (ESGG)

Arrival

Time 2026-04-21 18:01
Airport Malmö Sturup Airport (ESMS)
Time Latitude Longitude Altitude Speed Heading
2026-04-21 16:59 57.67092 12.29591 512 ft 0 kts 116°
2026-04-21 17:08 57.67097 12.29570 513 ft 2 kts 116°
2026-04-21 17:08 57.67103 12.29547 513 ft 2 kts 116°
2026-04-21 17:08 57.67110 12.29524 513 ft 2 kts 127°
2026-04-21 17:08 57.67120 12.29508 513 ft 2 kts 154°
2026-04-21 17:09 57.67146 12.29505 513 ft 2 kts 203°
2026-04-21 17:09 57.67149 12.29508 512 ft 0 kts 207°
2026-04-21 17:12 57.67148 12.29507 512 ft 0 kts 207°
2026-04-21 17:12 57.67146 12.29505 512 ft 4 kts 208°
2026-04-21 17:13 57.67129 12.29488 512 ft 0 kts 206°
2026-04-21 17:13 57.67127 12.29487 512 ft 3 kts 206°
2026-04-21 17:14 57.67086 12.29449 512 ft 8 kts 206°
2026-04-21 17:14 57.67025 12.29394 512 ft 10 kts 206°
2026-04-21 17:14 57.66989 12.29354 512 ft 5 kts 227°
2026-04-21 17:14 57.66986 12.29298 512 ft 6 kts 289°
2026-04-21 17:15 57.67004 12.29214 512 ft 7 kts 283°
2026-04-21 17:15 57.66985 12.29133 512 ft 8 kts 216°
2026-04-21 17:15 57.66914 12.29066 512 ft 15 kts 206°
2026-04-21 17:15 57.66827 12.28988 512 ft 12 kts 206°
2026-04-21 17:16 57.66753 12.28921 512 ft 11 kts 206°
2026-04-21 17:16 57.66690 12.28864 512 ft 9 kts 206°
2026-04-21 17:16 57.66664 12.28794 512 ft 6 kts 266°
2026-04-21 17:16 57.66664 12.28701 509 ft 7 kts 257°
2026-04-21 17:17 57.66625 12.28636 508 ft 10 kts 206°
2026-04-21 17:17 57.66568 12.28584 508 ft 9 kts 206°
2026-04-21 17:17 57.66494 12.28516 508 ft 14 kts 206°
2026-04-21 17:17 57.66400 12.28431 508 ft 17 kts 206°
2026-04-21 17:18 57.66296 12.28337 507 ft 15 kts 206°
2026-04-21 17:18 57.66191 12.28240 506 ft 17 kts 206°
2026-04-21 17:18 57.66092 12.28151 505 ft 16 kts 206°
2026-04-21 17:18 57.65993 12.28061 505 ft 15 kts 205°
2026-04-21 17:19 57.65891 12.27969 504 ft 18 kts 206°
2026-04-21 17:19 57.65797 12.27884 502 ft 11 kts 205°
2026-04-21 17:19 57.65716 12.27809 501 ft 16 kts 207°
2026-04-21 17:19 57.65604 12.27706 499 ft 20 kts 205°
2026-04-21 17:20 57.65471 12.27586 493 ft 22 kts 206°
2026-04-21 17:20 57.65345 12.27473 494 ft 18 kts 206°
2026-04-21 17:20 57.65238 12.27375 492 ft 17 kts 206°
2026-04-21 17:20 57.65152 12.27296 491 ft 10 kts 206°
2026-04-21 17:21 57.65091 12.27241 481 ft 10 kts 206°
2026-04-21 17:21 57.65031 12.27182 485 ft 8 kts 217°
2026-04-21 17:21 57.65013 12.27104 487 ft 4 kts 278°
2026-04-21 17:21 57.65034 12.27051 488 ft 5 kts 324°
2026-04-21 17:22 57.65056 12.27030 488 ft 7 kts 336°
2026-04-21 17:22 57.65127 12.26985 483 ft 8 kts 348°
2026-04-21 17:22 57.65184 12.26987 489 ft 8 kts 16°
2026-04-21 17:22 57.65234 12.27027 483 ft 9 kts 26°
2026-04-21 17:23 57.65480 12.27250 491 ft 75 kts 25°
2026-04-21 17:23 57.66109 12.27827 621 ft 117 kts 29°
2026-04-21 17:23 57.66887 12.28586 1047 ft 133 kts 25°
2026-04-21 17:23 57.67716 12.29391 1636 ft 141 kts 27°
2026-04-21 17:24 57.68662 12.30306 2017 ft 159 kts 27°
2026-04-21 17:24 57.69675 12.31297 2575 ft 166 kts 28°
2026-04-21 17:24 57.70591 12.32553 3246 ft 163 kts 46°
2026-04-21 17:24 57.71153 12.34450 3673 ft 178 kts 72°
2026-04-21 17:25 57.71248 12.36787 4250 ft 180 kts 92°
2026-04-21 17:25 57.70876 12.39032 4712 ft 186 kts 114°
2026-04-21 17:25 57.70090 12.40985 5194 ft 189 kts 131°
2026-04-21 17:25 57.69051 12.42496 5730 ft 189 kts 142°
2026-04-21 17:26 57.67977 12.43872 6252 ft 187 kts 140°
2026-04-21 17:26 57.66850 12.45128 6706 ft 189 kts 153°
2026-04-21 17:26 57.65572 12.45715 7218 ft 192 kts 169°
2026-04-21 17:26 57.64227 12.45753 7681 ft 195 kts 179°
2026-04-21 17:27 57.62884 12.45507 8168 ft 194 kts 181°
2026-04-21 17:27 57.61506 12.45337 8450 ft 202 kts 179°
2026-04-21 17:27 57.60096 12.45126 8857 ft 204 kts 180°
2026-04-21 17:27 57.58691 12.44919 9262 ft 206 kts 179°
2026-04-21 17:28 57.57255 12.44831 9659 ft 206 kts 175°
2026-04-21 17:28 57.55820 12.44892 10062 ft 206 kts 173°
2026-04-21 17:28 57.54382 12.45044 10434 ft 207 kts 172°
2026-04-21 17:28 57.52938 12.45198 10791 ft 208 kts 172°
2026-04-21 17:29 57.51487 12.45338 11134 ft 210 kts 172°
2026-04-21 17:29 57.50024 12.45474 11489 ft 211 kts 172°
2026-04-21 17:29 57.48557 12.45611 11843 ft 212 kts 172°
2026-04-21 17:29 57.47083 12.45749 12200 ft 212 kts 172°
2026-04-21 17:30 57.45606 12.45881 12554 ft 213 kts 172°
2026-04-21 17:30 57.44119 12.46024 12907 ft 214 kts 172°
2026-04-21 17:30 57.42632 12.46211 13249 ft 213 kts 164°
2026-04-21 17:30 57.41239 12.47028 13542 ft 210 kts 154°
2026-04-21 17:31 57.39883 12.47976 13856 ft 211 kts 154°
2026-04-21 17:31 57.38491 12.48907 14190 ft 213 kts 156°
2026-04-21 17:31 57.37073 12.49744 14483 ft 215 kts 158°
2026-04-21 17:31 57.35631 12.50517 14776 ft 216 kts 159°
2026-04-21 17:32 57.34656 12.51032 14971 ft 217 kts 159°
2026-04-21 17:32 57.32757 12.52050 15337 ft 218 kts 159°
2026-04-21 17:32 57.31276 12.52841 15604 ft 219 kts 159°
2026-04-21 17:32 57.29806 12.53629 15874 ft 220 kts 159°
2026-04-21 17:33 57.28331 12.54418 16150 ft 221 kts 159°
2026-04-21 17:33 57.26853 12.55212 16419 ft 222 kts 159°
2026-04-21 17:33 57.25363 12.55998 16676 ft 223 kts 159°
2026-04-21 17:33 57.23866 12.56779 16943 ft 224 kts 159°
2026-04-21 17:34 57.22357 12.57564 17170 ft 227 kts 159°
2026-04-21 17:34 57.20821 12.58376 17256 ft 234 kts 159°
2026-04-21 17:34 57.19230 12.59229 17296 ft 242 kts 159°
2026-04-21 17:34 57.17613 12.60097 17317 ft 248 kts 159°
2026-04-21 17:35 57.15934 12.60989 17326 ft 253 kts 159°
2026-04-21 17:35 57.14227 12.61896 17330 ft 257 kts 159°
2026-04-21 17:35 57.12493 12.62818 17331 ft 260 kts 159°
2026-04-21 17:35 57.10740 12.63746 17336 ft 263 kts 159°
2026-04-21 17:36 57.08967 12.64684 17336 ft 265 kts 159°
2026-04-21 17:36 57.07189 12.65627 17332 ft 267 kts 159°
2026-04-21 17:36 57.05387 12.66582 17189 ft 273 kts 159°
2026-04-21 17:36 57.03542 12.67558 17007 ft 279 kts 160°
2026-04-21 17:37 57.01659 12.68552 16831 ft 283 kts 160°
2026-04-21 17:37 56.99746 12.69558 16643 ft 287 kts 160°
2026-04-21 17:37 56.98471 12.70229 16521 ft 289 kts 160°
2026-04-21 17:37 56.95871 12.71597 16227 ft 293 kts 160°
2026-04-21 17:38 56.93900 12.72633 15985 ft 296 kts 160°
2026-04-21 17:38 56.91915 12.73676 15765 ft 297 kts 160°
2026-04-21 17:38 56.89946 12.74710 15538 ft 299 kts 160°
2026-04-21 17:38 56.87943 12.75756 15315 ft 300 kts 160°
2026-04-21 17:39 56.85929 12.76808 15095 ft 301 kts 160°
2026-04-21 17:39 56.83921 12.77859 14871 ft 301 kts 160°
2026-04-21 17:39 56.81906 12.78914 14648 ft 301 kts 160°
2026-04-21 17:39 56.79887 12.79967 14430 ft 301 kts 160°
2026-04-21 17:40 56.77869 12.81020 14213 ft 301 kts 160°
2026-04-21 17:40 56.75856 12.82067 14030 ft 298 kts 160°
2026-04-21 17:40 56.73887 12.83079 13815 ft 291 kts 160°
2026-04-21 17:40 56.71953 12.84077 13579 ft 287 kts 160°
2026-04-21 17:41 56.70038 12.85076 13331 ft 284 kts 160°
2026-04-21 17:41 56.68168 12.86053 13090 ft 282 kts 160°
2026-04-21 17:41 56.66288 12.87031 12861 ft 280 kts 160°
2026-04-21 17:41 56.64394 12.88014 12616 ft 279 kts 160°
2026-04-21 17:42 56.62529 12.88976 12378 ft 278 kts 160°
2026-04-21 17:42 56.60694 12.89922 12106 ft 278 kts 160°
2026-04-21 17:42 56.58814 12.90888 11824 ft 277 kts 160°
2026-04-21 17:42 56.56987 12.91830 11547 ft 276 kts 160°
2026-04-21 17:43 56.55138 12.92781 11264 ft 276 kts 160°
2026-04-21 17:43 56.53294 12.93730 11004 ft 274 kts 160°
2026-04-21 17:43 56.51462 12.94673 10767 ft 273 kts 160°
2026-04-21 17:43 56.49632 12.95612 10547 ft 271 kts 160°
2026-04-21 17:44 56.48441 12.96224 10469 ft 268 kts 160°
2026-04-21 17:44 56.46665 12.97134 10413 ft 263 kts 160°
2026-04-21 17:44 56.44914 12.98030 10377 ft 258 kts 160°
2026-04-21 17:44 56.43200 12.98905 10364 ft 254 kts 160°
2026-04-21 17:45 56.41505 12.99770 10352 ft 251 kts 160°
2026-04-21 17:45 56.39832 13.00625 10353 ft 249 kts 160°
2026-04-21 17:45 56.38174 13.01473 10348 ft 247 kts 160°
2026-04-21 17:45 56.36524 13.02315 10348 ft 246 kts 160°
2026-04-21 17:46 56.34882 13.03151 10348 ft 245 kts 160°
2026-04-21 17:46 56.33236 13.03989 10340 ft 246 kts 160°
2026-04-21 17:46 56.31573 13.04832 10190 ft 250 kts 160°
2026-04-21 17:46 56.29887 13.05683 10007 ft 252 kts 160°
2026-04-21 17:47 56.28193 13.06540 9818 ft 254 kts 160°
2026-04-21 17:47 56.26492 13.07404 9630 ft 255 kts 160°
2026-04-21 17:47 56.24784 13.08270 9445 ft 255 kts 160°
2026-04-21 17:47 56.23087 13.09131 9212 ft 257 kts 160°
2026-04-21 17:48 56.21344 13.10008 8973 ft 257 kts 160°
2026-04-21 17:48 56.19646 13.10863 8731 ft 256 kts 160°
2026-04-21 17:48 56.17936 13.11725 8498 ft 254 kts 160°
2026-04-21 17:48 56.16242 13.12577 8262 ft 251 kts 160°
2026-04-21 17:49 56.14567 13.13422 8023 ft 249 kts 160°
2026-04-21 17:49 56.12906 13.14259 7806 ft 247 kts 160°
2026-04-21 17:49 56.11256 13.15092 7576 ft 246 kts 160°
2026-04-21 17:49 56.09611 13.15919 7347 ft 246 kts 160°
2026-04-21 17:50 56.07955 13.16754 7132 ft 248 kts 160°
2026-04-21 17:50 56.06287 13.17588 6916 ft 249 kts 161°
2026-04-21 17:50 56.04635 13.18412 6692 ft 250 kts 161°
2026-04-21 17:50 56.02954 13.19254 6452 ft 251 kts 161°
2026-04-21 17:51 56.01272 13.20097 6208 ft 251 kts 161°
2026-04-21 17:51 55.99588 13.20938 5963 ft 251 kts 161°
2026-04-21 17:51 55.97902 13.21780 5737 ft 251 kts 161°
2026-04-21 17:51 55.96217 13.22616 5509 ft 252 kts 161°
2026-04-21 17:52 55.94528 13.23458 5284 ft 251 kts 161°
2026-04-21 17:52 55.92850 13.24296 5138 ft 248 kts 162°
2026-04-21 17:52 55.91205 13.25114 4958 ft 245 kts 162°
2026-04-21 17:52 55.89625 13.25881 4698 ft 238 kts 162°
2026-04-21 17:53 55.88053 13.26653 4426 ft 230 kts 162°
2026-04-21 17:53 55.86529 13.27412 4163 ft 225 kts 162°
2026-04-21 17:53 55.85035 13.28166 3916 ft 221 kts 162°
2026-04-21 17:53 55.83569 13.28899 3658 ft 218 kts 162°
2026-04-21 17:54 55.82117 13.29622 3398 ft 215 kts 162°
2026-04-21 17:54 55.80750 13.30308 3171 ft 212 kts 163°
2026-04-21 17:54 55.79413 13.30983 2959 ft 210 kts 163°
2026-04-21 17:54 55.78006 13.31685 2732 ft 209 kts 164°
2026-04-21 17:55 55.76630 13.32368 2614 ft 200 kts 164°
2026-04-21 17:55 55.75322 13.33014 2568 ft 191 kts 164°
2026-04-21 17:55 55.74059 13.33602 2533 ft 185 kts 169°
2026-04-21 17:55 55.72800 13.33881 2512 ft 180 kts 175°
2026-04-21 17:56 55.71569 13.34025 2504 ft 175 kts 179°
2026-04-21 17:56 55.70379 13.34109 2507 ft 165 kts 179°
2026-04-21 17:56 55.69269 13.34274 2499 ft 157 kts 174°
2026-04-21 17:56 55.68170 13.34544 2495 ft 162 kts 173°
2026-04-21 17:57 55.67042 13.34839 2509 ft 165 kts 173°
2026-04-21 17:57 55.65918 13.35094 2499 ft 161 kts 175°
2026-04-21 17:57 55.64849 13.35303 2458 ft 147 kts 175°
2026-04-21 17:57 55.63916 13.35431 2323 ft 125 kts 177°
2026-04-21 17:58 55.63074 13.35601 2115 ft 122 kts 175°
2026-04-21 17:58 55.62228 13.35793 1914 ft 122 kts 175°
2026-04-21 17:58 55.61390 13.35995 1695 ft 121 kts 175°
2026-04-21 17:58 55.60567 13.36173 1514 ft 117 kts 176°
2026-04-21 17:59 55.59758 13.36296 1302 ft 116 kts 179°
2026-04-21 17:59 55.58965 13.36475 1107 ft 113 kts 176°
2026-04-21 17:59 55.58196 13.36676 949 ft 110 kts 178°
2026-04-21 17:59 55.57443 13.36828 794 ft 107 kts 178°
2026-04-21 18:00 55.56711 13.36982 662 ft 104 kts 180°
2026-04-21 18:00 55.56004 13.37132 503 ft 102 kts 179°
2026-04-21 18:00 55.55310 13.37287 373 ft 101 kts 179°
2026-04-21 18:00 55.54607 13.37421 237 ft 98 kts 177°
2026-04-21 18:01 55.54295 13.37477 235 ft 83 kts 172°
2026-04-21 18:01 55.53882 13.37570 236 ft 42 kts 173°
2026-04-21 18:01 55.53631 13.37621 237 ft 31 kts 173°
2026-04-21 18:01 55.53444 13.37662 238 ft 23 kts 172°
2026-04-21 18:02 55.53302 13.37688 240 ft 18 kts 174°
2026-04-21 18:02 55.53162 13.37718 237 ft 24 kts 173°
2026-04-21 18:02 55.53038 13.37744 237 ft 12 kts 172°
2026-04-21 18:02 55.52986 13.37707 236 ft 7 kts 240°
2026-04-21 18:03 55.52976 13.37604 230 ft 8 kts 263°
2026-04-21 18:03 55.52974 13.37587 230 ft 0 kts 263°
2026-04-21 18:03 55.52973 13.37561 229 ft 5 kts 262°
2026-04-21 18:04 55.52974 13.37493 228 ft 6 kts 289°
2026-04-21 18:04 55.53012 13.37453 228 ft 10 kts 349°
2026-04-21 18:04 55.53103 13.37436 231 ft 12 kts 354°
2026-04-21 18:04 55.53192 13.37418 228 ft 13 kts 353°
2026-04-21 18:05 55.53286 13.37398 228 ft 14 kts 353°
2026-04-21 18:05 55.53381 13.37379 228 ft 14 kts 353°
2026-04-21 18:05 55.53478 13.37359 230 ft 14 kts 353°
2026-04-21 18:05 55.53578 13.37338 230 ft 15 kts 353°
2026-04-21 18:06 55.53679 13.37318 228 ft 15 kts 354°
2026-04-21 18:06 55.53780 13.37296 228 ft 14 kts 354°
2026-04-21 18:06 55.53857 13.37282 230 ft 10 kts 354°
2026-04-21 18:06 55.53917 13.37269 229 ft 7 kts 353°
2026-04-21 18:07 55.53956 13.37233 228 ft 6 kts 308°
2026-04-21 18:07 55.53963 13.37178 228 ft 4 kts 271°
2026-04-21 18:07 55.53962 13.37135 228 ft 3 kts 263°
2026-04-21 18:07 55.53958 13.37082 228 ft 6 kts 261°
2026-04-21 18:08 55.53954 13.37018 227 ft 3 kts 262°
2026-04-21 18:08 55.53950 13.36956 230 ft 7 kts 264°
2026-04-21 18:08 55.53942 13.36856 227 ft 8 kts 262°
2026-04-21 18:08 55.53936 13.36759 227 ft 7 kts 266°
2026-04-21 18:09 55.53932 13.36683 227 ft 5 kts 262°
2026-04-21 18:09 55.53930 13.36631 227 ft 2 kts 285°
2026-04-21 18:09 55.53941 13.36619 229 ft 3 kts 336°
2026-04-21 18:09 55.53976 13.36610 229 ft 6 kts 354°
2026-04-21 18:10 55.54001 13.36605 227 ft 2 kts 353°
2026-04-21 18:10 55.54005 13.36604 227 ft 0 kts 353°